Rochester, Indiana, United States (46975)
Lat: 41.06N, Lon: 86.22W
Wx Zone: INZ015
Local Info
Past Weather Observations for Today

NOTE: This archive is for the closest National Weather Service station to Rochester. Information may differ from the station used for current weather conditions.

Click here for Long-term Archive

Time Weather Temperature Dewpoint Humidity Pressure Winds Precip Visibility
10:15
Mostly Cloudy
23°F / -5°C 16°F / -9°C 74% 30.3 in
(1026 mb)
S 4.6 mph
(S 7 kph)
- 10SM
09:55
Partly Cloudy
23°F / -5°C 18°F / -8°C 80% 30.3 in
(1026 mb)
S 4.6 mph
(S 7 kph)
- 10SM
09:35
Mostly Cloudy
23°F / -5°C 18°F / -8°C 80% 30.3 in
(1026 mb)
SSE 6.9 mph
(SSE 11 kph)
- 10SM
09:15
Mostly Cloudy
23°F / -5°C 16°F / -9°C 74% 30.33 in
(1027 mb)
SSE 4.6 mph
(SSE 7 kph)
- 10SM
08:55
Partly Cloudy
23°F / -5°C 18°F / -8°C 80% 30.33 in
(1027 mb)
Calm - 10SM
08:35
Partly Cloudy
21°F / -6°C 16°F / -9°C 80% 30.33 in
(1027 mb)
Calm - 10SM
08:15
Partly Cloudy
21°F / -6°C 16°F / -9°C 80% 30.33 in
(1027 mb)
Calm - 10SM
07:55
Mostly Cloudy
21°F / -6°C 16°F / -9°C 80% 30.33 in
(1027 mb)
Calm - 10SM
07:35
Partly Cloudy
21°F / -6°C 16°F / -9°C 80% 30.33 in
(1027 mb)
Calm - 10SM
07:15
Partly Cloudy
21°F / -6°C 16°F / -9°C 80% 30.33 in
(1027 mb)
Calm - 10SM
06:55
Partly Cloudy
21°F / -6°C 16°F / -9°C 80% 30.33 in
(1027 mb)
Calm - 10SM
06:35
Overcast
21°F / -6°C 16°F / -9°C 80% 30.36 in
(1028 mb)
Calm - 10SM
06:15
Overcast
21°F / -6°C 16°F / -9°C 80% 30.36 in
(1028 mb)
SW 3.5 mph
(SW 6 kph)
- 10SM
05:55
Overcast
19°F / -7°C 16°F / -9°C 86% 30.36 in
(1028 mb)
SSW 3.5 mph
(SSW 6 kph)
- 10SM
05:35
Overcast
19°F / -7°C 16°F / -9°C 86% 30.36 in
(1028 mb)
SSW 3.5 mph
(SSW 6 kph)
- 10SM
05:15
Overcast
19°F / -7°C 16°F / -9°C 86% 30.36 in
(1028 mb)
SSW 4.6 mph
(SSW 7 kph)
- 10SM
04:55
Mostly Cloudy
18°F / -8°C 16°F / -9°C 93% 30.36 in
(1028 mb)
Calm - 10SM
04:35
Clear
16°F / -9°C 14°F / -10°C 93% 30.36 in
(1028 mb)
Calm - 10SM
04:15
Clear
14°F / -10°C 12°F / -11°C 92% 30.36 in
(1028 mb)
Calm - 10SM
03:55
Clear
16°F / -9°C 14°F / -10°C 93% 30.36 in
(1028 mb)
Calm - 10SM
03:35
Clear
16°F / -9°C 14°F / -10°C 93% 30.33 in
(1027 mb)
Calm - 10SM
03:15
Clear
16°F / -9°C 14°F / -10°C 93% 30.33 in
(1027 mb)
Calm - 10SM
02:55
Clear
18°F / -8°C 14°F / -10°C 86% 30.36 in
(1028 mb)
Calm - 10SM
02:35
Clear
18°F / -8°C 14°F / -10°C 86% 30.36 in
(1028 mb)
Calm - 10SM
02:15
Partly Cloudy
18°F / -8°C 14°F / -10°C 86% 30.36 in
(1028 mb)
Calm - 10SM
01:55
Overcast
18°F / -8°C 14°F / -10°C 86% 30.36 in
(1028 mb)
Calm - 10SM
01:35
Partly Cloudy
18°F / -8°C 14°F / -10°C 86% 30.36 in
(1028 mb)
SSW 3.5 mph
(SSW 6 kph)
- 10SM
01:15
Clear
18°F / -8°C 14°F / -10°C 86% 30.36 in
(1028 mb)
Calm - 10SM
00:55
Clear
18°F / -8°C 16°F / -9°C 93% 30.36 in
(1028 mb)
Calm - 10SM
00:35
Clear
18°F / -8°C 16°F / -9°C 93% 30.36 in
(1028 mb)
Calm - 10SM
00:15
Clear
18°F / -8°C 16°F / -9°C 93% 30.36 in
(1028 mb)
Calm - 10SM
Time Weather Temperature Dewpoint Humidity Pressure Winds Precip Visibility


Weather for websites

WeatherForYou.com, LLC is not responsible for any damages or problems caused by this service. Current weather conditions are obtained from the closest station including government and personal stations which may have varying degrees of accuracy. Weather forecasts are derived from the NOAA NDFD. Like all things, this site belongs to Jesus Christ... He just trusts me to maintain it. If you have any questions or comments email webmaster@weatherforyou.com

Copyright © 2014, WeatherForYou.com LLC. All rights reserved.